Tracking 28096 objects as of 29-Sep-2023
HD Live streaming from Space Station
objects crossing your sky now

STARLINK-1620

Track STARLINK-1620 now!
10-day predictions
STARLINK-1620 is classified as:


NORAD ID: 46149
Int'l Code: 2020-057AJ
Perigee: 553.3 km
Apogee: 555.5 km
Inclination: 53.1 °
Period: 95.6 minutes
Semi major axis: 6925 km
RCS: Unknown
Launch date: August 18, 2020
Source: United States (US)
Launch site: AIR FORCE EASTERN TEST RANGE (AFETR)
Your satellite tracking list
Your tracking list is empty




NASA's NSSDC Master Catalog

Two Line Element Set (TLE):
1 46149U 20057AJ  23271.49494128 -.00006639  00000-0 -42732-3 0  9991
2 46149  53.0554 346.3186 0001552  79.9177 280.1987 15.06388871172385
Source of the keplerian elements: AFSPC